CZ-3B DEB, 40184

Orbit data source: Space-Track

CZ-3B DEB, 40184 is space debris in HEO originally from a launch on Mon, 19 Dec 2011 UTC launched from the Xichang Space Center, China (XSC). Debris objects in space refer to the collection of defunct objects orbiting the Earth. Examples of debris include non-operational satellites, rocket bodies, and fragments generated from explosions, collisions, or faulty payload assembly.

Loading next visibility...
Identifier
40184, 2011-077H
Orbit
HEO
Country
Flag of CNCN / PRC
Related business
Manufacturer
CALT
Mission
Spacecraft
Bus & Motor
Unknown
Mass
Unknown
Launch date (UTC)
2011-12-19 (14 years ago)
Launch vehicle
Unknown
Launch site
Xichang Space Center, China (XSC)
Object type
Payload
Rocket body
Debris
Shape & HBR
Unknown shape, 0.4 m
Radar Cross Section
Medium (>0.1 m² and <1 m²)

Expand to show TLE details & history
Last TLE update: 18 hours ago

TLE from 18 hours ago
0 CZ-3B DEB
1 40184U 11077H   25343.09590297  .00001837  00000-0  65963-2 0  9991
2 40184  22.0967 257.2571 7520802 338.8532   2.1457  1.92345414 76320
Epoch: 2025-12-09T02:18Z
TLE epoch observation values (Epoch: 2025-12-09T02:18:06.016Z)
Latitude
-0.0015°
Longitude
144.62683°
Altitude
571.386 km
Speed
10.005 km/s
True Right ascension
17h 08m 56s
True Declination
0° 00' 05"
Sunlit
Object was in daylight at epoch
Visualization orbit readout
Latitude
Unknown
Longitude
Unknown
Altitude
Unknown
Speed
Unknown
Apparent Right ascension
Unknown
Apparent Declination
Unknown
Sunlit
N/A
Visualization observer readout
Local Sidereal Time
18:05:38
Azimuth
Unknown
Elevation
Unknown
Doppler factor
Unknown
Orbital elements
Apogee altitude
41,481.797 km
Perigee altitude
394.056 km
Semi-major axis
27,316.063 km
Eccentricity
0.75208
Inclination
22.0967°
RAAN
257.2571°
Arg. of periapsis
338.8532°
True anomaly
22.50035°
Mean anomaly
2.1457°
Eccentric anomaly
8.55838°
Mean motion
0.48075 °/min
Orbital period
748.84 mins
BSTAR
0.0065963
Loading maneuver chart data...
Computing Atmospheric mass density...
Loading historical data...
Loading historical data...
Loading historical data...
Loading historical data...
Loading historical data...
Loading historical data...
Loading historical data...

Documentation

Showing up to 5 results
|